TimeCST,TemperatureF,Dew PointF,Humidity,Sea Level PressureIn,VisibilityMPH,Wind Direction,Wind SpeedMPH,Gust SpeedMPH,PrecipitationIn,Events,Conditions,WindDirDegrees,DateUTC
12:15 AM,17.6,15.8,93,29.92,8.0,SW,16.1,-,0.00,,Partly Cloudy,220,2013-02-12 06:15:00
12:35 AM,15.8,14.0,93,29.91,10.0,SSW,12.7,-,0.00,,Partly Cloudy,210,2013-02-12 06:35:00
12:55 AM,17.6,14.0,86,29.91,10.0,SW,16.1,-,0.00,,Clear,220,2013-02-12 06:55:00
1:15 AM,15.8,14.0,93,29.89,10.0,SSW,12.7,-,0.00,,Clear,210,2013-02-12 07:15:00
1:35 AM,17.6,15.8,93,29.88,10.0,SW,15.0,-,0.00,,Scattered Clouds,220,2013-02-12 07:35:00
1:55 AM,19.4,15.8,86,29.87,10.0,SSW,12.7,-,0.00,,Partly Cloudy,210,2013-02-12 07:55:00
2:15 AM,19.4,17.6,93,29.86,10.0,SSW,18.4,-,0.00,,Scattered Clouds,210,2013-02-12 08:15:00
2:35 AM,19.4,17.6,93,29.86,10.0,SW,17.3,-,0.00,,Scattered Clouds,220,2013-02-12 08:35:00
2:55 AM,19.4,17.6,93,29.85,10.0,SW,15.0,-,0.00,,Partly Cloudy,220,2013-02-12 08:55:00
3:15 AM,19.4,15.8,86,29.84,10.0,SSW,18.4,-,0.00,,Partly Cloudy,210,2013-02-12 09:15:00
3:35 AM,19.4,15.8,86,29.83,10.0,SW,17.3,-,0.00,,Partly Cloudy,220,2013-02-12 09:35:00
3:55 AM,19.4,15.8,86,29.83,10.0,SW,19.6,-,0.00,,Scattered Clouds,220,2013-02-12 09:55:00
4:15 AM,19.4,15.8,86,29.82,10.0,SW,17.3,-,0.00,,Mostly Cloudy,220,2013-02-12 10:15:00
4:35 AM,19.4,15.8,86,29.81,10.0,SW,18.4,-,0.00,,Overcast,220,2013-02-12 10:35:00
4:55 AM,19.4,14.0,80,29.81,10.0,SW,16.1,-,0.00,,Mostly Cloudy,220,2013-02-12 10:55:00
5:15 AM,17.6,14.0,86,29.82,10.0,SW,11.5,-,0.00,,Partly Cloudy,230,2013-02-12 11:15:00
5:35 AM,17.6,12.2,79,29.81,10.0,SW,13.8,-,0.00,,Clear,220,2013-02-12 11:35:00
5:55 AM,15.8,12.2,86,29.82,10.0,WSW,10.4,-,0.00,,Clear,240,2013-02-12 11:55:00
6:15 AM,14.0,10.4,86,29.81,10.0,SW,15.0,-,0.00,,Clear,230,2013-02-12 12:15:00
6:35 AM,14.0,12.2,93,29.81,10.0,WSW,16.1,-,0.00,,Clear,240,2013-02-12 12:35:00
6:55 AM,14.0,10.4,86,29.82,10.0,SW,13.8,-,0.00,,Clear,230,2013-02-12 12:55:00
7:15 AM,14.0,10.4,86,29.82,10.0,SW,11.5,-,0.00,,Clear,220,2013-02-12 13:15:00
7:35 AM,14.0,10.4,86,29.81,10.0,SW,13.8,-,0.00,,Clear,230,2013-02-12 13:35:00
7:55 AM,14.0,10.4,86,29.81,10.0,WSW,13.8,-,0.00,,Clear,240,2013-02-12 13:55:00
8:15 AM,15.8,12.2,86,29.81,10.0,WSW,12.7,-,0.00,,Clear,250,2013-02-12 14:15:00
8:35 AM,17.6,12.2,79,29.82,10.0,West,12.7,-,0.00,,Partly Cloudy,260,2013-02-12 14:35:00
8:55 AM,19.4,14.0,80,29.82,10.0,West,16.1,-,0.00,,Partly Cloudy,260,2013-02-12 14:55:00
9:15 AM,19.4,14.0,80,29.82,10.0,West,15.0,-,0.00,,Clear,270,2013-02-12 15:15:00
9:35 AM,21.2,14.0,74,29.82,10.0,West,16.1,-,0.00,,Clear,280,2013-02-12 15:35:00
9:55 AM,21.2,15.8,80,29.82,10.0,West,13.8,-,0.00,,Clear,270,2013-02-12 15:55:00
10:15 AM,21.2,15.8,80,29.82,10.0,West,17.3,-,0.00,,Clear,270,2013-02-12 16:15:00
10:35 AM,21.2,15.8,80,29.83,10.0,WSW,10.4,-,0.00,,Clear,240,2013-02-12 16:35:00
10:55 AM,21.2,17.6,86,29.84,10.0,WSW,10.4,-,0.00,,Clear,250,2013-02-12 16:55:00
11:15 AM,23.0,17.6,80,29.85,10.0,West,11.5,-,0.00,,Clear,270,2013-02-12 17:15:00
11:35 AM,23.0,17.6,80,29.85,10.0,West,10.4,-,0.00,,Clear,270,2013-02-12 17:35:00
11:55 AM,24.8,19.4,80,29.85,9.0,West,16.1,-,0.00,,Clear,270,2013-02-12 17:55:00
12:15 PM,26.6,19.4,74,29.85,10.0,West,18.4,-,0.00,,Clear,270,2013-02-12 18:15:00
12:35 PM,26.6,21.2,80,29.84,10.0,West,13.8,-,0.00,,Clear,270,2013-02-12 18:35:00
12:55 PM,28.4,21.2,74,29.83,10.0,West,11.5,-,0.00,,Clear,260,2013-02-12 18:55:00
1:15 PM,28.4,21.2,74,29.83,10.0,West,10.4,-,0.00,,Clear,270,2013-02-12 19:15:00
1:35 PM,28.4,23.0,80,29.83,10.0,West,10.4,-,0.00,,Clear,280,2013-02-12 19:35:00
1:55 PM,30.2,23.0,75,29.82,10.0,West,15.0,20.7,0.00,,Clear,270,2013-02-12 19:55:00
2:15 PM,30.2,23.0,75,29.82,10.0,West,15.0,-,0.00,,Clear,270,2013-02-12 20:15:00
2:35 PM,30.2,24.8,80,29.82,10.0,West,12.7,-,0.00,,Clear,270,2013-02-12 20:35:00
2:55 PM,30.2,26.6,86,29.81,10.0,West,12.7,-,0.00,,Clear,260,2013-02-12 20:55:00
3:15 PM,30.2,26.6,86,29.81,10.0,West,12.7,-,0.00,,Clear,260,2013-02-12 21:15:00
3:35 PM,32.0,26.6,80,29.82,10.0,West,13.8,-,0.00,,Clear,270,2013-02-12 21:35:00
3:55 PM,32.0,26.6,80,29.81,10.0,West,9.2,-,0.00,,Clear,260,2013-02-12 21:55:00
4:15 PM,30.2,26.6,86,29.81,10.0,West,11.5,-,0.00,,Clear,260,2013-02-12 22:15:00
4:35 PM,30.2,26.6,86,29.81,10.0,WSW,12.7,-,0.00,,Clear,240,2013-02-12 22:35:00
4:55 PM,30.2,26.6,86,29.81,10.0,West,13.8,-,0.00,,Clear,260,2013-02-12 22:55:00
5:15 PM,28.4,24.8,86,29.82,10.0,WSW,10.4,-,0.00,,Clear,250,2013-02-12 23:15:00
5:35 PM,26.6,23.0,86,29.82,10.0,SW,10.4,-,0.00,,Clear,230,2013-02-12 23:35:00
5:55 PM,24.8,23.0,93,29.82,10.0,SSW,6.9,-,0.00,,Partly Cloudy,200,2013-02-12 23:55:00
6:15 PM,23.0,21.2,93,29.83,10.0,SW,8.1,-,0.00,,Partly Cloudy,220,2013-02-13 00:15:00
6:35 PM,23.0,21.2,93,29.84,10.0,SSW,9.2,-,0.00,,Mostly Cloudy,200,2013-02-13 00:35:00
6:55 PM,23.0,21.2,93,29.83,10.0,SW,11.5,-,0.00,,Partly Cloudy,220,2013-02-13 00:55:00
7:15 PM,23.0,21.2,93,29.83,10.0,SW,10.4,-,0.00,,Clear,220,2013-02-13 01:15:00
7:35 PM,21.2,19.4,93,29.83,10.0,SW,9.2,-,0.00,,Clear,230,2013-02-13 01:35:00
8:15 PM,19.4,19.4,100,29.82,10.0,SSW,10.4,-,0.00,,Clear,210,2013-02-13 02:15:00
8:35 PM,19.4,17.6,93,29.82,10.0,SW,11.5,-,0.00,,Clear,230,2013-02-13 02:35:00
8:55 PM,17.6,17.6,100,29.82,10.0,SW,8.1,-,0.00,,Clear,220,2013-02-13 02:55:00
9:15 PM,17.6,17.6,100,29.82,10.0,WSW,8.1,-,0.00,,Partly Cloudy,240,2013-02-13 03:15:00
9:35 PM,23.0,21.2,93,29.82,10.0,West,12.7,-,0.00,,Mostly Cloudy,260,2013-02-13 03:35:00
9:55 PM,23.0,21.2,93,29.81,10.0,SSW,9.2,-,0.00,,Overcast,210,2013-02-13 03:55:00
10:15 PM,21.2,19.4,93,29.81,10.0,SW,10.4,-,0.00,,Overcast,230,2013-02-13 04:15:00
10:35 PM,21.2,19.4,93,29.79,10.0,SSW,15.0,-,0.00,,Overcast,210,2013-02-13 04:35:00
10:55 PM,21.2,19.4,93,29.79,10.0,SSW,10.4,-,0.00,,Overcast,210,2013-02-13 04:55:00
11:15 PM,21.2,21.2,100,29.79,10.0,SW,10.4,-,0.00,,Scattered Clouds,230,2013-02-13 05:15:00
11:35 PM,23.0,21.2,93,29.79,10.0,SW,12.7,-,0.00,,Clear,230,2013-02-13 05:35:00
11:55 PM,21.2,19.4,93,29.78,10.0,SW,10.4,-,0.00,,Scattered Clouds,220,2013-02-13 05:55:00